<?xml version='1.0' encoding='UTF-8'?>
<gpx xmlns="http://www.topografix.com/GPX/1/1" creator="www.balnam.be" version="1.1" xmlns:xsi="http://www.w3.org/2001/XMLSchema-instance" xsi:schemaLocation="http://www.topografix.com/GPX/1/1 http://www.topografix.com/GPX/1/1/gpx.xsd">
<trk>
<name>hbowd11</name>
<cmt>v</cmt>
<desc>Wadelincourt Sentier n°11 </desc>
<link href="https://chemins.be/wadelincourt/sentier/11"/><trkseg>
<trkpt lat="50.538425" lon="3.650332"><time>2026-05-03T07:35:54Z</time></trkpt>
<trkpt lat="50.537862" lon="3.649339"><time>2026-05-03T07:45:54Z</time></trkpt>
<trkpt lat="50.537176" lon="3.649025"><time>2026-05-03T07:55:54Z</time></trkpt>
<trkpt lat="50.535852" lon="3.647154"><time>2026-05-03T08:05:54Z</time></trkpt>
<trkpt lat="50.535840" lon="3.646966"><time>2026-05-03T08:15:54Z</time></trkpt>
<trkpt lat="50.533729" lon="3.645502"><time>2026-05-03T08:25:54Z</time></trkpt>
</trkseg></trk>
<trk>
<name>hbowd11</name>
<cmt>q</cmt>
<desc>Wadelincourt Sentier n°11 </desc>
<link href="https://chemins.be/wadelincourt/sentier/11"/><trkseg>
<trkpt lat="50.533729" lon="3.645502"><time>2026-05-03T08:25:54Z</time></trkpt>
<trkpt lat="50.531291" lon="3.643782"><time>2026-05-03T08:35:54Z</time></trkpt>
</trkseg>
</trk>
<trk>
<name>hbowd12</name>
<cmt>q</cmt>
<desc>Wadelincourt Sentier n°12 </desc>
<link href="https://chemins.be/wadelincourt/sentier/12"/><trkseg>
<trkpt lat="50.537386" lon="3.647328"><time>2026-05-03T07:35:54Z</time></trkpt>
<trkpt lat="50.536830" lon="3.648369"><time>2026-05-03T07:45:54Z</time></trkpt>
<trkpt lat="50.535365" lon="3.650228"><time>2026-05-03T07:55:54Z</time></trkpt>
<trkpt lat="50.533572" lon="3.652207"><time>2026-05-03T08:05:54Z</time></trkpt>
</trkseg>
</trk>
<trk>
<name>hbowd13</name>
<cmt>q</cmt>
<desc>Wadelincourt Sentier n°13 </desc>
<link href="https://chemins.be/wadelincourt/sentier/13"/><trkseg>
<trkpt lat="50.536741" lon="3.651591"><time>2026-05-03T07:35:54Z</time></trkpt>
<trkpt lat="50.536292" lon="3.650944"><time>2026-05-03T07:45:54Z</time></trkpt>
<trkpt lat="50.535392" lon="3.650379"><time>2026-05-03T07:55:54Z</time></trkpt>
<trkpt lat="50.535160" lon="3.650157"><time>2026-05-03T08:05:54Z</time></trkpt>
<trkpt lat="50.533058" lon="3.649187"><time>2026-05-03T08:15:54Z</time></trkpt>
<trkpt lat="50.531583" lon="3.646787"><time>2026-05-03T08:25:54Z</time></trkpt>
</trkseg>
</trk>
<trk>
<name>hbowd14</name>
<cmt>q</cmt>
<desc>Wadelincourt Sentier n°14 </desc>
<link href="https://chemins.be/wadelincourt/sentier/14"/><trkseg>
<trkpt lat="50.537385" lon="3.654786"><time>2026-05-03T07:35:54Z</time></trkpt>
<trkpt lat="50.536754" lon="3.653034"><time>2026-05-03T07:45:54Z</time></trkpt>
<trkpt lat="50.536638" lon="3.652581"><time>2026-05-03T07:55:54Z</time></trkpt>
<trkpt lat="50.536830" lon="3.651977"><time>2026-05-03T08:05:54Z</time></trkpt>
<trkpt lat="50.536741" lon="3.651591"><time>2026-05-03T08:15:54Z</time></trkpt>
<trkpt lat="50.536986" lon="3.650550"><time>2026-05-03T08:25:54Z</time></trkpt>
<trkpt lat="50.536681" lon="3.650280"><time>2026-05-03T08:35:54Z</time></trkpt>
<trkpt lat="50.536779" lon="3.648444"><time>2026-05-03T08:45:54Z</time></trkpt>
</trkseg>
</trk>
<trk>
<name>hbowd15</name>
<cmt>q</cmt>
<desc>Wadelincourt Sentier n°15 </desc>
<link href="https://chemins.be/wadelincourt/sentier/15"/><trkseg>
<trkpt lat="50.537265" lon="3.647018"><time>2026-05-03T07:35:54Z</time></trkpt>
<trkpt lat="50.537745" lon="3.645961"><time>2026-05-03T07:45:54Z</time></trkpt>
<trkpt lat="50.537628" lon="3.642941"><time>2026-05-03T07:55:54Z</time></trkpt>
</trkseg>
</trk>
<trk>
<name>hbowd16</name>
<cmt>q</cmt>
<desc>Wadelincourt Sentier n°16 </desc>
<link href="https://chemins.be/wadelincourt/sentier/16"/><trkseg>
<trkpt lat="50.538193" lon="3.646664"><time>2026-05-03T07:35:54Z</time></trkpt>
<trkpt lat="50.537676" lon="3.646000"><time>2026-05-03T07:45:54Z</time></trkpt>
<trkpt lat="50.536575" lon="3.645730"><time>2026-05-03T07:55:54Z</time></trkpt>
</trkseg>
</trk>
<trk>
<name>hbowd17</name>
<cmt>q</cmt>
<desc>Wadelincourt Sentier n°17 </desc>
<link href="https://chemins.be/wadelincourt/sentier/17"/><trkseg>
<trkpt lat="50.536052" lon="3.644121"><time>2026-05-03T07:35:54Z</time></trkpt>
<trkpt lat="50.536572" lon="3.644486"><time>2026-05-03T07:45:54Z</time></trkpt>
<trkpt lat="50.536612" lon="3.644395"><time>2026-05-03T07:55:54Z</time></trkpt>
<trkpt lat="50.537736" lon="3.645389"><time>2026-05-03T08:05:54Z</time></trkpt>
</trkseg>
</trk>
<trk>
<name>hbowd18</name>
<cmt>q</cmt>
<desc>Wadelincourt Sentier n°18 </desc>
<link href="https://chemins.be/wadelincourt/sentier/18"/><trkseg>
<trkpt lat="50.538454" lon="3.649252"><time>2026-05-03T07:35:54Z</time></trkpt>
<trkpt lat="50.538120" lon="3.649806"><time>2026-05-03T07:45:54Z</time></trkpt>
</trkseg>
</trk>
<trk>
<name>hbowd19</name>
<cmt>q</cmt>
<desc>Wadelincourt Sentier n°19 </desc>
<link href="https://chemins.be/wadelincourt/sentier/19"/><trkseg>
<trkpt lat="50.537895" lon="3.651647"><time>2026-05-03T07:35:54Z</time></trkpt>
<trkpt lat="50.536974" lon="3.650554"><time>2026-05-03T07:45:54Z</time></trkpt>
</trkseg>
</trk>
<trk>
<name>hbowd20</name>
<cmt>q</cmt>
<desc>Wadelincourt Sentier n°20 </desc>
<link href="https://chemins.be/wadelincourt/sentier/20"/><trkseg>
<trkpt lat="50.538000" lon="3.651507"><time>2026-05-03T07:35:54Z</time></trkpt>
<trkpt lat="50.538814" lon="3.651944"><time>2026-05-03T07:45:54Z</time></trkpt>
<trkpt lat="50.539198" lon="3.653202"><time>2026-05-03T07:55:54Z</time></trkpt>
<trkpt lat="50.539595" lon="3.654504"><time>2026-05-03T08:05:54Z</time></trkpt>
<trkpt lat="50.540395" lon="3.659032"><time>2026-05-03T08:15:54Z</time></trkpt>
</trkseg>
</trk>
<trk>
<name>hbowd21</name>
<cmt>q</cmt>
<desc>Wadelincourt Sentier n°21 </desc>
<link href="https://chemins.be/wadelincourt/sentier/21"/><trkseg>
<trkpt lat="50.539354" lon="3.648007"><time>2026-05-03T07:35:54Z</time></trkpt>
<trkpt lat="50.538568" lon="3.649391"><time>2026-05-03T07:45:54Z</time></trkpt>
</trkseg>
</trk>
<trk>
<name>hbowd22</name>
<cmt>q</cmt>
<desc>Wadelincourt Sentier n°22 </desc>
<link href="https://chemins.be/wadelincourt/sentier/22"/><trkseg>
<trkpt lat="50.537922" lon="3.653490"><time>2026-05-03T07:35:54Z</time></trkpt>
<trkpt lat="50.539397" lon="3.651111"><time>2026-05-03T07:45:54Z</time></trkpt>
<trkpt lat="50.540245" lon="3.649227"><time>2026-05-03T07:55:54Z</time></trkpt>
</trkseg>
</trk>
<trk>
<name>hbowd23</name>
<cmt>d</cmt>
<desc>Wadelincourt Sentier n°23 </desc>
<link href="https://chemins.be/wadelincourt/sentier/23"/><trkseg>
<trkpt lat="50.538302" lon="3.646572"><time>2026-05-03T07:35:54Z</time></trkpt>
<trkpt lat="50.539876" lon="3.645778"><time>2026-05-03T07:45:54Z</time></trkpt>
<trkpt lat="50.540159" lon="3.645722"><time>2026-05-03T07:55:54Z</time></trkpt>
<trkpt lat="50.540326" lon="3.645214"><time>2026-05-03T08:05:54Z</time></trkpt>
<trkpt lat="50.541063" lon="3.644761"><time>2026-05-03T08:15:54Z</time></trkpt>
</trkseg>
</trk>
<trk>
<name>hbowd24</name>
<cmt>s</cmt>
<desc>Wadelincourt Sentier n°24 </desc>
<link href="https://chemins.be/wadelincourt/sentier/24"/><trkseg>
<trkpt lat="50.538359" lon="3.646766"><time>2026-05-03T07:35:54Z</time></trkpt>
<trkpt lat="50.539327" lon="3.646598"><time>2026-05-03T07:45:54Z</time></trkpt>
<trkpt lat="50.540053" lon="3.647582"><time>2026-05-03T07:55:54Z</time></trkpt>
<trkpt lat="50.540300" lon="3.647153"><time>2026-05-03T08:05:54Z</time></trkpt>
<trkpt lat="50.540699" lon="3.647669"><time>2026-05-03T08:15:54Z</time></trkpt>
</trkseg>
</trk>
<trk>
<name>hbowd25</name>
<cmt>v</cmt>
<desc>Wadelincourt Sentier n°25 </desc>
<link href="https://chemins.be/wadelincourt/sentier/25"/><trkseg>
<trkpt lat="50.532583" lon="3.652766"><time>2026-05-03T07:35:54Z</time></trkpt>
<trkpt lat="50.532660" lon="3.653854"><time>2026-05-03T07:45:54Z</time></trkpt>
<trkpt lat="50.532333" lon="3.655398"><time>2026-05-03T07:55:54Z</time></trkpt>
<trkpt lat="50.533009" lon="3.656258"><time>2026-05-03T08:05:54Z</time></trkpt>
<trkpt lat="50.533556" lon="3.657287"><time>2026-05-03T08:15:54Z</time></trkpt>
<trkpt lat="50.534820" lon="3.657938"><time>2026-05-03T08:25:54Z</time></trkpt>
<trkpt lat="50.535524" lon="3.659618"><time>2026-05-03T08:35:54Z</time></trkpt>
<trkpt lat="50.535311" lon="3.660148"><time>2026-05-03T08:45:54Z</time></trkpt>
<trkpt lat="50.535814" lon="3.661405"><time>2026-05-03T08:55:54Z</time></trkpt>
</trkseg></trk>
<trk>
<name>hbowd25</name>
<cmt>d</cmt>
<desc>Wadelincourt Sentier n°25 </desc>
<link href="https://chemins.be/wadelincourt/sentier/25"/><trkseg>
<trkpt lat="50.535814" lon="3.661405"><time>2026-05-03T08:55:54Z</time></trkpt>
<trkpt lat="50.537634" lon="3.665712"><time>2026-05-03T09:05:54Z</time></trkpt>
</trkseg>
</trk>
<trk>
<name>hbowd26</name>
<cmt>q</cmt>
<desc>Wadelincourt Sentier n°26 </desc>
<link href="https://chemins.be/wadelincourt/sentier/26"/><trkseg>
<trkpt lat="50.538970" lon="3.649516"><time>2026-05-03T07:35:54Z</time></trkpt>
<trkpt lat="50.540241" lon="3.649227"><time>2026-05-03T07:45:54Z</time></trkpt>
</trkseg>
</trk>
<trk>
<name>hbowd27</name>
<cmt>q</cmt>
<desc>Wadelincourt Sentier n°27 </desc>
<link href="https://chemins.be/wadelincourt/sentier/27"/><trkseg>
<trkpt lat="50.537376" lon="3.654774"><time>2026-05-03T07:35:54Z</time></trkpt>
<trkpt lat="50.538669" lon="3.656038"><time>2026-05-03T07:45:54Z</time></trkpt>
<trkpt lat="50.540624" lon="3.659479"><time>2026-05-03T07:55:54Z</time></trkpt>
<trkpt lat="50.540790" lon="3.662777"><time>2026-05-03T08:05:54Z</time></trkpt>
<trkpt lat="50.543659" lon="3.668459"><time>2026-05-03T08:15:54Z</time></trkpt>
<trkpt lat="50.544401" lon="3.670947"><time>2026-05-03T08:25:54Z</time></trkpt>
<trkpt lat="50.545336" lon="3.672306"><time>2026-05-03T08:35:54Z</time></trkpt>
</trkseg>
</trk>
<trk>
<name>hbowd28</name>
<cmt>r</cmt>
<desc>Wadelincourt Chemin n°28 </desc>
<link href="https://chemins.be/wadelincourt/chemin/28"/><trkseg>
<trkpt lat="50.540031" lon="3.648952"><time>2026-05-03T07:35:54Z</time></trkpt>
<trkpt lat="50.542160" lon="3.651254"><time>2026-05-03T07:45:54Z</time></trkpt>
</trkseg></trk>
<trk>
<name>hbowd28</name>
<cmt>v</cmt>
<desc>Wadelincourt Chemin n°28 </desc>
<link href="https://chemins.be/wadelincourt/chemin/28"/><trkseg>
<trkpt lat="50.542160" lon="3.651254"><time>2026-05-03T07:45:54Z</time></trkpt>
<trkpt lat="50.546675" lon="3.656181"><time>2026-05-03T07:55:54Z</time></trkpt>
<trkpt lat="50.548483" lon="3.659074"><time>2026-05-03T08:05:54Z</time></trkpt>
</trkseg>
</trk>
<trk>
<name>hbowd7</name>
<cmt>r</cmt>
<desc>Wadelincourt Chemin n°7 Rue du Biez</desc>
<link href="https://chemins.be/wadelincourt/chemin/7"/><trkseg>
<trkpt lat="50.535883" lon="3.644939"><time>2026-05-03T07:35:54Z</time></trkpt>
<trkpt lat="50.535404" lon="3.644467"><time>2026-05-03T07:45:54Z</time></trkpt>
<trkpt lat="50.535041" lon="3.643993"><time>2026-05-03T07:55:54Z</time></trkpt>
<trkpt lat="50.534393" lon="3.643749"><time>2026-05-03T08:05:54Z</time></trkpt>
</trkseg></trk>
<trk>
<name>hbowd7</name>
<cmt>v</cmt>
<desc>Wadelincourt Chemin n°7 Rue du Biez</desc>
<link href="https://chemins.be/wadelincourt/chemin/7"/><trkseg>
<trkpt lat="50.534393" lon="3.643749"><time>2026-05-03T08:05:54Z</time></trkpt>
<trkpt lat="50.533789" lon="3.643532"><time>2026-05-03T08:15:54Z</time></trkpt>
<trkpt lat="50.533043" lon="3.643642"><time>2026-05-03T08:25:54Z</time></trkpt>
<trkpt lat="50.531295" lon="3.643020"><time>2026-05-03T08:35:54Z</time></trkpt>
<trkpt lat="50.530909" lon="3.643012"><time>2026-05-03T08:45:54Z</time></trkpt>
</trkseg>
</trk>
<trk>
<name>hbowd8</name>
<cmt>v</cmt>
<desc>Wadelincourt Chemin n°8 </desc>
<link href="https://chemins.be/wadelincourt/chemin/8"/><trkseg>
<trkpt lat="50.537403" lon="3.654941"><time>2026-05-03T07:35:54Z</time></trkpt>
<trkpt lat="50.537908" lon="3.661426"><time>2026-05-03T07:45:54Z</time></trkpt>
<trkpt lat="50.537655" lon="3.667991"><time>2026-05-03T07:55:54Z</time></trkpt>
<trkpt lat="50.538191" lon="3.671328"><time>2026-05-03T08:05:54Z</time></trkpt>
</trkseg>
</trk>
<trk>
<name>hbowd9</name>
<cmt>q</cmt>
<desc>Wadelincourt Sentier n°9 </desc>
<link href="https://chemins.be/wadelincourt/sentier/9"/><trkseg>
<trkpt lat="50.536090" lon="3.643569"><time>2026-05-03T07:35:54Z</time></trkpt>
<trkpt lat="50.535180" lon="3.644085"><time>2026-05-03T07:45:54Z</time></trkpt>
<trkpt lat="50.534752" lon="3.645196"><time>2026-05-03T07:55:54Z</time></trkpt>
<trkpt lat="50.533754" lon="3.645496"><time>2026-05-03T08:05:54Z</time></trkpt>
</trkseg></trk>
<trk>
<name>hbowd9</name>
<cmt>v</cmt>
<desc>Wadelincourt Sentier n°9 </desc>
<link href="https://chemins.be/wadelincourt/sentier/9"/><trkseg>
<trkpt lat="50.533754" lon="3.645496"><time>2026-05-03T08:05:54Z</time></trkpt>
<trkpt lat="50.532797" lon="3.645903"><time>2026-05-03T08:15:54Z</time></trkpt>
<trkpt lat="50.531542" lon="3.646048"><time>2026-05-03T08:25:54Z</time></trkpt>
</trkseg>
</trk>
<trk>
<name>hbowdi1</name>
<cmt>v</cmt>
<desc>Wadelincourt Sentier n°i1 </desc>
<link href="https://chemins.be/wadelincourt/sentier/i1"/><trkseg>
<trkpt lat="50.538765" lon="3.647224"><time>2026-05-03T07:35:54Z</time></trkpt>
<trkpt lat="50.538224" lon="3.648076"><time>2026-05-03T07:45:54Z</time></trkpt>
</trkseg>
</trk>
</gpx>